Home   Weather   Cruzeiro do Sul   Past weeks

Flag for Brazil Past Weather in Cruzeiro do Sul, Acre, Brazil — Yesterday and Last 2 Weeks

Now
81 °F

Mostly cloudy.


Feels Like: 86 °F
Forecast: N/A
Wind: 5 mph from West

Location: Cruzeiro Do Sul Airport

Current Time: Jan 19, 2017 at 4:45:28 pm

Latest Report: Jan 19, 2017 at 4:00 pm


Visibility: N/A

Pressure: 29.74 "Hg

Humidity: 84%

Dew Point: 75 °F

Location of Cruzeiro do SulLocation

Past Weather in Cruzeiro do Sul — Graph

°F

Cruzeiro do Sul Temperature Yesterday

Maximum temperature yesterday: 88 °F (at 10:00 am)
Minimum temperature yesterday: 75 °F (at 12:00 am)
Average temperature yesterday: 81 °F

High & Low Weather Summary for the Past Weeks

 TemperatureHumidityPressure
High91 °F (Jan 8, 2:00 pm)100% (Jan 5, 11:00 pm)30.57 "Hg (Jan 5, 11:00 pm)
Low73 °F (Jan 5, 11:00 pm)55% (Jan 8, 3:00 pm)29.71 "Hg (Jan 4, 4:00 pm)
Average79 °F86%29.85 "Hg
* Reported Jan 4 3:00 pm — Jan 19 3:00 pm, Cruzeiro do Sul, Weather by CustomWeather, © 2017

Note: Actual official high and low records may vary slightly from our data, if they occured in-between our weather recording intervals... More about our weather records

Advertising

Cruzeiro do Sul Weather History for the Previous 24 Hours

Scroll right to see more
 ConditionsComfort  
Time TempWeatherWind HumidityBarometerVisibility
3:00 pm
Thu, Jan 19
82 °FThunderstorms. Partly sunny.7 mph74%29.74 "HgN/A
2:00 pm81 °FPartly sunny.7 mph84%29.77 "HgN/A
1:00 pm86 °FThunderstorms. Partly sunny.7 mph70%29.77 "HgN/A
12:00 pm88 °FPartly sunny.3 mph66%29.83 "HgN/A
11:00 am88 °FPartly sunny.No wind75%29.86 "HgN/A
10:00 am86 °FPartly sunny.No wind75%29.86 "HgN/A
9:00 am82 °FPartly sunny.No wind79%29.86 "HgN/A
8:15 am77 °FBroken clouds.No wind94%29.86 "HgN/A
1:45 am75 °FClear.1 mph100%29.80 "Hg10 mi
1:00 am75 °FClear.No wind100%29.83 "Hg10 mi
12:00 am77 °FOvercast.1 mph94%29.83 "HgN/A
11:00 pm
Wed, Jan 18
75 °FOvercast.1 mph100%29.86 "HgN/A
10:00 pm77 °FOvercast.1 mph94%29.83 "HgN/A
9:00 pm77 °FOvercast.5 mph94%29.83 "HgN/A
8:00 pm77 °FThunderstorms. Partly cloudy.2 mph89%29.80 "HgN/A
7:00 pm79 °FPartly cloudy.2 mph89%29.77 "HgN/A
6:00 pm81 °FPartly sunny.2 mph89%29.77 "HgN/A
5:00 pm81 °FBroken clouds.2 mph89%29.74 "HgN/A
4:00 pm79 °FLight rain. Broken clouds.3 mph89%29.74 "HgN/A
Weather by CustomWeather, © 2017

See weather overviewHow to use our weather pages